Tracking 29091 objects as of 17-Jul-2024
HD Live streaming from Space Station
objects crossing your sky now

GORIZONT 31

Track GORIZONT 31 now!
GORIZONT 31 is classified as:


NORAD ID: 23775
Int'l Code: 1996-005A
Perigee: 35,811.7 km
Apogee: 35,987.5 km
Inclination: 14.5 °
Period: 1,441.5 minutes
Semi major axis: 42270 km
RCS: 12.5892 m2 (large)
Launch date: January 25, 1996
Source: Commonwealth of Independent States (former USSR) (CIS)
Launch site: TYURATAM MISSILE AND SPACE COMPLEX (TTMTR)

Telecommunications; telephone and television communications to the Russian republic.
Your satellite tracking list
Your tracking list is empty




NASA's NSSDC Master Catalog

Two Line Element Set (TLE):
1 23775U 96005A   24198.64140794  .00000046  00000-0  00000-0 0  9993
2 23775  14.4639 359.7753 0020798 220.3376 325.0332  0.99895291104051
Source of the keplerian elements: AFSPC